This is the latest recevied weather packets stored in our database for station/object SQ6XL-13. If no packets are shown the sender has not sent any weather packets the latest 10 day(s).
| Time | Temp. | Humidity | Pressure | Rain* | Wind** | Luminosity | Snow |
|---|---|---|---|---|---|---|---|
| 1787915345 | 25.56° C | 58% | 1014.5 hPa | 0 mm | - | - | - |
| 1787914785 | 25.56° C | 58% | 1014.6 hPa | 0 mm | - | - | - |
| 1787914300 | 25.56° C | 59% | 1014.8 hPa | 0 mm | - | - | - |
| 1787913700 | 25.56° C | 60% | 1014.9 hPa | 0 mm | - | - | - |
| 1787913130 | 25° C | 61% | 1015 hPa | 0 mm | - | - | - |
| 1787912565 | 24.44° C | 62% | 1015.3 hPa | 0 mm | - | - | - |
| 1787912007 | 24.44° C | 64% | 1015.3 hPa | 0 mm | - | - | - |
| 1787911495 | 23.89° C | 65% | 1015.3 hPa | 0 mm | - | - | - |
| 1787910915 | 23.33° C | 67% | 1015.7 hPa | 0 mm | - | - | - |
| 1787910405 | 23.33° C | 67% | 1015.6 hPa | 0 mm | - | - | - |
| 1787909835 | 23.33° C | 67% | 1015.6 hPa | 0 mm | - | - | - |
| 1787909291 | 23.89° C | 65% | 1015.8 hPa | 0 mm | - | - | - |
| 1787908740 | 23.89° C | 65% | 1016 hPa | 0 mm | - | - | - |
| 1787908245 | 23.89° C | 65% | 1016 hPa | 0 mm | - | - | - |
| 1787907650 | 23.33° C | 66% | 1016 hPa | 0 mm | - | - | - |
| 1787907105 | 23.33° C | 66% | 1016 hPa | 0 mm | - | - | - |
| 1787906605 | 22.78° C | 61% | 1016.1 hPa | 0 mm | - | - | - |
| 1787906005 | 23.33° C | 61% | 1016.1 hPa | 0 mm | - | - | - |
| 1787905475 | 22.78° C | 63% | 1016 hPa | 0 mm | - | - | - |
| 1787904920 | 22.22° C | 64% | 1016.2 hPa | 0 mm | - | - | - |
| 1787904395 | 22.22° C | 65% | 1016.2 hPa | 0 mm | - | - | - |
| 1787903832 | 21.11° C | 70% | 1016.4 hPa | 0 mm | - | - | - |
| 1787903274 | 20.56° C | 76% | 1016.4 hPa | 0 mm | - | - | - |
| 1787902686 | 20° C | 76% | 1016.5 hPa | 0 mm | - | - | - |
| 1787902141 | 19.44° C | 79% | 1016.5 hPa | 0 mm | - | - | - |
* Rain latest hour (hover to see other rain measurements)
** Current wind speed in m/s (hover to see current wind gust speed)